Regional Weather Roundup
Issued by NWS

Home | Current Version | Previous Version | Graphics & Text | Print | Product List | Glossary On
Versions: 1 2 3 4 5 6 7 8 9 10 11 12 13 14 15 16 17 18 19 20 21 22 23 24 25 26 27 28 29 30 31 32 33 34 35 36 37 38 39 40 41 42 43 44 45 46 47 48 49 50
000
ASUS43 KMKX 101800
RWRWI

WISCONSIN REGIONAL WEATHER ROUNDUP
NATIONAL WEATHER SERVICE MILWAUKEE/SULLIVAN WI
1200 PM CST SAT DEC 10 2016

NOTE: "FAIR" INDICATES FEW OR NO CLOUDS BELOW 12,000 FEET WITH NO
SIGNIFICANT WEATHER AND/OR OBSTRUCTIONS TO VISIBILITY.

WIZ001-002-006>008-014>016-023>028-101900-
NORTHWEST WISCONSIN

CITY           SKY/WX    TMP DP  RH WIND       PRES   REMARKS
SUPERIOR ARPT  CLOUDY     7  -3  63 W5        30.44F WCI  -1
6HR MIN TEMP:   6; 6HR MAX TEMP:   8;

ASHLAND        CLOUDY     9  -1  64 SW6       30.42F WCI  -1
6HR MIN TEMP:   2; 6HR MAX TEMP:  11; 6HR PCP: TRACE;

HAYWARD        MOSUNNY   11  -1  58 CALM      30.36F
6HR MIN TEMP:   7; 6HR MAX TEMP:  11;

SIREN          PTSUNNY   10   1  66 CALM      30.40F
CUMBERLAND     CLOUDY    10   1  67 CALM      30.37F
RICE LAKE      PTSUNNY   11   2  65 CALM      30.41S
6HR MIN TEMP:   9; 6HR MAX TEMP:  11;

CHETEK         PTSUNNY   11   2  66 CALM      30.40F
LADYSMITH      CLOUDY    11   1  64 CALM      30.39F
6HR MIN TEMP:  10; 6HR MAX TEMP:  12;

EAU CLAIRE     NOT AVBL
MENOMONIE      PTSUNNY   11   2  66 CALM      30.42F
6HR MIN TEMP:  10; 6HR MAX TEMP:  12;

NEW RICHMOND   CLOUDY    10   1  67 S3        30.41F
OSCEOLA        CLOUDY    10   3  72 SE5       30.45F WCI   2
$$

WIZ003>005-009-010-017-018-101900-
NORTH CENTRAL WISCONSIN

CITY           SKY/WX    TMP DP  RH WIND       PRES   REMARKS
MANITOWISH WTR PTSUNNY    6  -4  66 W7        30.34F WCI  -6
ARBOR VITAE    CLOUDY     9   1  68 NW5       30.34F WCI   1
WOODRUFF       CLOUDY     9   1  68 NW5       30.34F WCI   1
RHINELANDER    SUNNY     10  -1  61 W12       30.34F WCI  -5
6HR MIN TEMP:   6; 6HR MAX TEMP:  10; 6HR PCP: TRACE;

EAGLE RIVER    PTSUNNY    9  -3  58 W8        30.32F WCI  -3
LAND O LAKES   MOSUNNY    9  -1  63 W7        30.33F WCI  -2
6HR MIN TEMP:   6; 6HR MAX TEMP:  11;

PHILLIPS       PTSUNNY    7  -2  66 CALM      30.35F
6HR MIN TEMP:   3; 6HR MAX TEMP:   7;

TOMAHAWK       SUNNY     10  -2  59 W3        30.35F
6HR MIN TEMP:   5; 6HR MAX TEMP:  10;

MEDFORD        CLOUDY    10  -1  62 CALM      30.35F
MERRILL        MOSUNNY   10  -1  62 W3        30.37F
6HR MIN TEMP:   9; 6HR MAX TEMP:  10;

$$

WIZ029-030-035-036-043>047-101900-
CENTRAL WISCONSIN

CITY           SKY/WX    TMP DP  RH WIND       PRES   REMARKS
WAUSAU         MOSUNNY   12   1  61 N8        30.36F WCI   0
6HR MIN TEMP:  10; 6HR MAX TEMP:  12; 6HR PCP: TRACE;

MOSINEE        PTSUNNY   12   3  67 NW5       30.38F WCI   4
MARSHFIELD     SUNNY     11   2  67 SW7       30.37F WCI   0
6HR MIN TEMP:  10; 6HR MAX TEMP:  12;

STEVENS POINT  MOSUNNY   12   1  62 N5        30.40F WCI   4
WAUPACA        SUNNY     20   4  50 SW9       30.42F WCI   9
6HR MIN TEMP:  14; 6HR MAX TEMP:  20;

WAUTOMA        PTSUNNY   16   7  67 NW5       30.43F WCI   9
6HR MIN TEMP:   7; 6HR MAX TEMP:  16;

WISC RAPIDS    MOSUNNY   14   4  64 W6        30.42F WCI   5
6HR MIN TEMP:  10; 6HR MAX TEMP:  16; 6HR PCP: TRACE;

CAMP DOUGLAS   PTSUNNY   14   5  67 SW6       30.43F WCI   5
$$

WIZ011>013-019>022-031-037>040-048>050-101900-
NORTHEAST WISCONSIN

CITY           SKY/WX    TMP DP  RH WIND       PRES   REMARKS
ANTIGO         MOSUNNY    8  -1  66 NW8       30.36F WCI  -4
SHAWANO        PTSUNNY   17   4  57 NW8       30.41F WCI   6
6HR MIN TEMP:  16; 6HR MAX TEMP:  17;

OCONTO         MOSUNNY   16   4  58 NW8       30.41F WCI   5
6HR MIN TEMP:  14; 6HR MAX TEMP:  17;

STURGEON BAY   CLOUDY    16   6  65 W14       30.39F WCI   2
6HR MIN TEMP:  15; 6HR MAX TEMP:  18; 6HR PCP: TRACE;

GREEN BAY      PTSUNNY   20   6  55 NW9       30.40F WCI   9
6HR MIN TEMP:  17; 6HR MAX TEMP:  22; 6HR PCP: TRACE;

MANITOWOC      MOSUNNY   19   5  53 W15       30.41F WCI   5
APPLETON       MOSUNNY   18   1  49 W9        30.38F WCI   6
CLINTONVILLE   CLOUDY    18   5  57 NW6       30.40F WCI   9
OSHKOSH        SUNNY     16   6  65 W6        30.41F WCI   7
6HR MIN TEMP:  12; 6HR MAX TEMP:  17;

$$

WIZ032>034-041-042-053>061-101900-
SOUTHWEST WISCONSIN

CITY           SKY/WX    TMP DP  RH WIND       PRES   REMARKS
LA CROSSE      MOSUNNY   15   6  67 CALM      30.44F
6HR MIN TEMP:   9; 6HR MAX TEMP:  15;

SPARTA         CLOUDY    14   7  74 CALM      30.44F
6HR MIN TEMP:   3; 6HR MAX TEMP:  14;

VIROQUA        CLOUDY    11   6  77 CALM      30.39F
6HR MIN TEMP:   5; 6HR MAX TEMP:  11;

BOSCOBEL       CLOUDY    19   9  65 SW3       30.46F
6HR MIN TEMP:  13; 6HR MAX TEMP:  20;

PRAIRIE DU CHI CLOUDY    17   8  68 CALM      30.46F
PLATTEVILLE    CLOUDY    19  16  85 CALM      30.44F
$$

WIZ056-057-062-063-064-067-068-101900-
SOUTH CENTRAL WISCONSIN

CITY           SKY/WX    TMP DP  RH WIND       PRES   REMARKS
REEDSBURG      CLOUDY    15   6  69 W3        30.43F
6HR MIN TEMP:  10; 6HR MAX TEMP:  15;

BARABOO/DELLS  CLOUDY    16   7  68 W5        30.42F WCI   8
LONE ROCK      NOT AVBL
MINERAL POINT  CLOUDY    19  14  79 SW5       30.42F WCI  13
MADISON        CLOUDY    19   8  62 CALM      30.43F
6HR MIN TEMP:  12; 6HR MAX TEMP:  19; 6HR PCP: TRACE;

MIDDLETON      CLOUDY    21  12  68 CALM      30.42F
6HR MIN TEMP:  13; 6HR MAX TEMP:  21;

WATERTOWN      CLOUDY    19  10  66 W7        30.43F WCI  10
6HR MIN TEMP:  13; 6HR MAX TEMP:  19;

MONROE         MOSUNNY   21  14  73 W6        30.43F WCI  14
JANESVILLE     PTSUNNY   21  12  68 W7        30.45F WCI  13
$$

WIZ051-052-058>065-066-070>072-101900-
SOUTHEAST WISCONSIN

CITY           SKY/WX    TMP DP  RH WIND       PRES   REMARKS
MILWAUKEE      PTSUNNY   22   9  57 W12       30.45F WCI  10
6HR MIN TEMP:  18; 6HR MAX TEMP:  23; 6HR PCP: TRACE;

WAUKESHA       MOSUNNY   18   9  68 W10       30.45F WCI   6
MILWAUKEE/TIMM SUNNY     21   7  53 SW9G23    30.45F WCI  11
RACINE         CLOUDY    23  11  60 W8        30.47S WCI  14
6HR MIN TEMP:  16; 6HR MAX TEMP:  23;

BURLINGTON     CLOUDY    26  19  73 W9        30.45F WCI  17
KENOSHA        CLOUDY    24  13  62 W13       30.45F WCI  12
6HR MIN TEMP:  13; 6HR MAX TEMP:  24;

FOND DU LAC    MOSUNNY   18   5  57 W8        30.43F WCI   8
6HR MIN TEMP:  12; 6HR MAX TEMP:  19;

SHEBOYGAN      SUNNY     19   6  57 W14       30.41F WCI   6
6HR MIN TEMP:  13; 6HR MAX TEMP:  20;

WEST BEND      SUNNY     19  10  68 NW9       30.42F WCI   9
JUNEAU         MOSUNNY   15   8  73 W5        30.45S WCI   7
$$

LSZ147-162-101900-
LAKE SUPERIOR

STATION/POSITION TIME  TEMP    WIND        PRES    WAVE
                       AIR SEA DIR/SP/G            HT/PER
                 (UTC) (F)     (DEG/KT/KT) (MB)    (FT/S)
DEVILS ISLAND    1700   10     270/ 15/ 19 1032.4F
PORT WING        1740    9     270/  4/ 10 1030.5F
SAXON HARBOR     1740   11     230/  6/  9 1030.5F
$$

LMZ867-665-643>646-101900-
LAKE MICHIGAN

STATION/POSITION TIME  TEMP    WIND        PRES    WAVE
                       AIR SEA DIR/SP/G            HT/PER
                 (UTC) (F)     (DEG/KT/KT) (MB)    (FT/S)
CHAMBERS ISLAND  1740   19     260/  6/ 14 1028.4F
NORTHPORT PIER   1740   19     280/  8/ 15 1028.4F
SISTER BAY       1720   24     310/ 13/ 17   N/A
ALGOMA LAKESHORE 1721          320/ 10/ 14   N/A
KEWAUNEE LAKESHO 1730   18     300/  8/ 14 1029.0F
SHEBOYGAN LAKESH 1700   17     310/ 11/ 13 1031.8F
PORT WASHINGTON  1740   20     260/  8/ 13 1031.5F
KENOSHA   LAKESH 1700   21     290/ 12/ 15 1031.5
$$

TC  - TEMPERATURE IN CELSIUS
VSB - VISIBILITY IN STATUTE MILES
WCI - WIND CHILL INDEX
HX  - HEAT INDEX




USA.gov is the U.S. government's official web portal to all federal, state and local government web resources and services.